Year,Month,Day,Hour,Minute,Value (Times are PST for temperature in C)
2020,02,01,03,18,10.60
2020,02,01,03,19,10.60
2020,02,01,03,20,10.60
2020,02,01,03,21,10.60
2020,02,01,03,22,10.60
2020,02,01,03,23,10.60
2020,02,01,03,24,10.60
2020,02,01,03,25,10.60
2020,02,01,03,26,10.60
2020,02,01,03,27,10.60
2020,02,01,03,28,10.60
2020,02,01,03,29,10.60
2020,02,01,03,30,10.60
2020,02,01,03,31,10.60
2020,02,01,03,32,10.60
2020,02,01,03,33,10.60
2020,02,01,03,34,10.60
2020,02,01,11,13,8.20
2020,02,01,11,14,8.20
2020,02,01,11,15,8.10
2020,02,01,11,16,8.10
2020,02,01,11,17,8.20
2020,02,01,11,18,8.10
2020,02,01,11,19,8.10
2020,02,01,11,20,8.10
2020,02,01,11,21,8.10
2020,02,01,11,22,8.10
2020,02,01,11,23,8.10
2020,02,01,11,24,8.10
2020,02,01,11,25,8.10
2020,02,01,11,26,8.10
2020,02,01,11,27,8.10
2020,02,01,11,28,8.10
2020,02,01,11,29,8.10
2020,02,01,11,30,8.20
2020,02,01,11,31,8.20
2020,02,01,11,32,8.20
2020,02,01,11,33,8.20
2020,02,01,11,34,8.20
2020,02,01,11,35,8.20
2020,02,01,11,36,8.20
2020,02,01,11,37,8.20
2020,02,01,11,38,8.20
2020,02,01,11,39,8.20
2020,02,01,11,40,8.20
2020,02,01,11,41,8.30
2020,02,01,11,42,8.30
2020,02,01,11,43,8.30
2020,02,01,11,44,8.30
2020,02,01,11,45,8.30
2020,02,01,11,46,8.40
2020,02,01,11,47,8.40
2020,02,01,11,48,8.40
2020,02,01,11,49,8.40
2020,02,01,11,50,8.40
2020,02,01,11,51,8.30
2020,02,01,11,52,8.30
2020,02,01,11,53,8.30
2020,02,01,11,54,8.30
2020,02,01,11,55,8.40
2020,02,01,11,56,8.40
2020,02,01,11,57,8.50
2020,02,01,11,58,8.50
2020,02,01,11,59,8.50
2020,02,01,12,00,8.60
2020,02,01,12,01,8.60
2020,02,01,12,02,8.60
2020,02,01,12,03,8.60
2020,02,01,12,04,8.60
2020,02,01,12,05,8.60
2020,02,01,12,06,8.60
2020,02,01,12,07,8.60
2020,02,01,12,08,8.60
2020,02,01,12,09,8.60
2020,02,01,12,10,8.70
2020,02,01,12,11,8.70
2020,02,01,12,12,8.70
2020,02,01,12,13,8.70
2020,02,01,12,14,8.70
2020,02,01,12,15,8.70
2020,02,01,12,16,8.70
2020,02,01,12,17,8.70
2020,02,01,12,18,8.80
2020,02,01,12,19,8.80
2020,02,01,12,20,8.80
2020,02,01,12,21,8.80
2020,02,01,12,22,8.90
2020,02,01,12,23,8.90
2020,02,01,12,24,8.90
2020,02,01,12,25,8.90
2020,02,01,12,26,8.90
2020,02,01,12,27,8.80
2020,02,01,12,28,8.80
2020,02,01,12,29,8.80
2020,02,01,12,30,8.80
2020,02,01,12,31,8.90
2020,02,01,12,32,8.90
2020,02,01,12,33,8.90
2020,02,01,12,34,8.90
2020,02,01,12,35,9.00
2020,02,01,12,36,9.00
2020,02,01,12,37,9.00
2020,02,01,12,38,9.00
2020,02,01,12,39,9.00
2020,02,01,12,40,9.00
2020,02,01,12,41,9.00
2020,02,01,12,42,8.90
2020,02,01,12,43,8.90
2020,02,01,12,44,8.90
2020,02,01,12,45,8.80
2020,02,01,12,46,8.80
2020,02,01,12,47,8.70
2020,02,01,12,48,8.70
2020,02,01,12,49,8.70
2020,02,01,12,50,8.70
2020,02,01,12,51,8.70
2020,02,01,12,52,8.70
2020,02,01,12,53,8.70
2020,02,01,12,54,8.70
2020,02,01,12,55,8.60
2020,02,01,12,56,8.60
2020,02,01,12,57,8.50
2020,02,01,12,58,8.50
2020,02,01,12,59,8.40
2020,02,01,13,00,8.40
2020,02,01,13,01,8.40
2020,02,01,13,02,8.40
2020,02,01,13,03,8.30
2020,02,01,13,04,8.30
2020,02,01,13,05,8.30
2020,02,01,13,06,8.20
2020,02,01,13,07,8.20
2020,02,01,13,08,8.20
2020,02,01,13,09,8.10
2020,02,01,13,10,8.10
2020,02,01,13,11,8.10
2020,02,01,13,12,8.10
2020,02,01,13,13,8.10
2020,02,01,13,14,8.10
2020,02,01,13,15,8.10
2020,02,01,13,16,8.00
2020,02,01,13,17,8.00
2020,02,01,13,18,8.00
2020,02,01,13,19,7.90
2020,02,01,13,20,7.90
2020,02,01,13,21,7.90
2020,02,01,13,22,7.90
2020,02,01,13,23,7.90
2020,02,01,13,24,7.90
2020,02,01,13,25,7.90
2020,02,01,13,26,7.90
2020,02,01,13,27,7.90
2020,02,01,13,28,7.90
2020,02,01,13,29,7.90
2020,02,01,13,30,7.90
2020,02,01,13,31,7.90
2020,02,01,13,32,7.90
2020,02,01,13,33,7.90
2020,02,01,13,34,7.90
2020,02,01,13,35,7.90
2020,02,01,13,36,7.90
2020,02,01,13,37,7.90
2020,02,01,13,38,7.90
2020,02,01,13,39,7.90
2020,02,01,13,40,7.90
2020,02,01,13,41,7.90
2020,02,01,13,42,8.00
2020,02,01,13,43,8.00
2020,02,01,13,44,8.00
2020,02,01,13,45,8.00
2020,02,01,13,46,8.00
2020,02,01,13,47,8.00
2020,02,01,13,48,8.00
2020,02,01,13,49,8.10
2020,02,01,13,50,8.10
2020,02,01,13,51,8.10
2020,02,01,13,52,8.20
2020,02,01,13,53,8.20
2020,02,01,13,54,8.30
2020,02,01,13,55,8.30
2020,02,01,13,56,8.30
2020,02,01,13,57,8.30
2020,02,01,13,58,8.30
2020,02,01,13,59,8.30
2020,02,01,14,00,8.30
2020,02,01,14,01,8.30
2020,02,01,14,02,8.40
2020,02,01,14,03,8.40
2020,02,01,14,04,8.40
2020,02,01,14,05,8.40
2020,02,01,14,06,8.40
2020,02,01,14,07,8.40
2020,02,01,14,08,8.40
2020,02,01,14,09,8.40
2020,02,01,14,10,8.40
2020,02,01,14,11,8.30
2020,02,01,14,12,8.30
2020,02,01,14,13,8.30
2020,02,01,14,14,8.20
2020,02,01,14,15,8.20
2020,02,01,14,16,8.20
2020,02,01,14,17,8.20
2020,02,01,14,18,8.10
2020,02,01,14,19,8.10
2020,02,01,14,20,8.10
2020,02,01,14,21,8.10
2020,02,01,14,22,8.10
2020,02,01,14,23,8.10
2020,02,01,14,24,8.00
2020,02,01,14,25,8.00
2020,02,01,14,26,8.10
2020,02,01,14,27,8.10
2020,02,01,14,28,8.10
2020,02,01,14,29,8.10
2020,02,01,14,30,8.10
2020,02,01,14,31,8.10
2020,02,01,14,32,8.00
2020,02,01,14,33,8.00
2020,02,01,14,34,7.90
2020,02,01,14,35,7.80
2020,02,01,14,36,7.80
2020,02,01,14,37,7.80
2020,02,01,14,38,7.80
2020,02,01,14,39,7.70
2020,02,01,14,40,7.70
2020,02,01,14,41,7.70
2020,02,01,14,42,7.70
2020,02,01,14,43,7.70
2020,02,01,14,44,7.60
2020,02,01,14,45,7.60
2020,02,01,14,46,7.50
2020,02,01,14,47,7.50
2020,02,01,14,48,7.40
2020,02,01,14,49,7.40
2020,02,01,14,50,7.40
2020,02,01,14,51,7.40
2020,02,01,14,52,7.50
2020,02,01,14,53,7.50
2020,02,01,14,54,7.60
2020,02,01,14,55,7.60
2020,02,01,14,56,7.60
2020,02,01,14,57,7.60
2020,02,01,14,58,7.60
2020,02,01,14,59,7.60
2020,02,01,15,00,7.60
2020,02,01,15,01,7.50
2020,02,01,15,02,7.40
2020,02,01,15,03,7.40
2020,02,01,15,04,7.40
2020,02,01,15,05,7.30
2020,02,01,15,06,7.30
2020,02,01,15,07,7.30
2020,02,01,15,08,7.30
2020,02,01,15,09,7.20
2020,02,01,15,10,7.20
2020,02,01,15,11,7.20
2020,02,01,15,12,7.10
2020,02,01,15,13,7.10
2020,02,01,15,14,7.10
2020,02,01,15,15,7.10
2020,02,01,15,16,7.10
2020,02,01,15,17,7.10
2020,02,01,15,18,7.10
2020,02,01,15,19,7.10
2020,02,01,15,20,7.10
2020,02,01,15,21,7.10
2020,02,01,15,22,7.10
2020,02,01,15,23,7.10
2020,02,01,15,24,7.10
2020,02,01,15,25,7.10
2020,02,01,15,26,7.10
2020,02,01,15,27,7.10
2020,02,01,15,28,7.10
2020,02,01,15,29,7.10
2020,02,01,15,30,7.10
2020,02,01,15,31,7.20
2020,02,01,15,32,7.20
2020,02,01,15,33,7.20
2020,02,01,15,34,7.20
2020,02,01,15,35,7.20
2020,02,01,15,36,7.20
2020,02,01,15,37,7.20
2020,02,01,15,38,7.20
2020,02,01,15,39,7.10
2020,02,01,15,40,7.10
2020,02,01,15,41,7.10
2020,02,01,15,42,7.20
2020,02,01,15,43,7.20
2020,02,01,15,44,7.20
2020,02,01,15,45,7.20
2020,02,01,15,46,7.10
2020,02,01,15,47,7.10
2020,02,01,15,48,7.10
2020,02,01,15,49,7.10
2020,02,01,15,50,7.10
2020,02,01,15,51,7.10
2020,02,01,15,52,7.00
2020,02,01,15,53,7.00
2020,02,01,15,54,6.90
2020,02,01,15,55,6.90
2020,02,01,15,56,6.90
2020,02,01,15,57,6.80
2020,02,01,15,58,6.80
2020,02,01,15,59,6.80
2020,02,01,16,00,6.80
2020,02,01,16,01,6.80
2020,02,01,16,02,6.80
2020,02,01,16,03,6.80
2020,02,01,16,04,6.80
2020,02,01,16,05,6.80
2020,02,01,16,06,6.80
2020,02,01,16,07,6.70
2020,02,01,16,08,6.70
2020,02,01,16,09,6.70
2020,02,01,16,10,6.70
2020,02,01,16,11,6.60
2020,02,01,16,12,6.60
2020,02,01,16,13,6.60
2020,02,01,16,14,6.60
2020,02,01,16,15,6.60
2020,02,01,16,16,6.50
2020,02,01,16,17,6.50
2020,02,01,16,18,6.50
2020,02,01,16,19,6.50
2020,02,01,16,20,6.50
2020,02,01,16,21,6.40
2020,02,01,16,22,6.40
2020,02,01,16,23,6.40
2020,02,01,16,24,6.40
2020,02,01,16,25,6.40
2020,02,01,16,26,6.40
2020,02,01,16,27,6.30
2020,02,01,16,28,6.30
2020,02,01,16,29,6.30
2020,02,01,16,30,6.30
2020,02,01,16,31,6.30
2020,02,01,16,32,6.20
2020,02,01,16,33,6.20
2020,02,01,16,34,6.20
2020,02,01,16,35,6.20
2020,02,01,16,36,6.20
2020,02,01,16,37,6.20
2020,02,01,16,38,6.10
2020,02,01,16,39,6.10
2020,02,01,16,40,6.10
2020,02,01,16,41,6.10
2020,02,01,16,42,6.10
2020,02,01,16,43,6.00
2020,02,01,16,44,6.00
2020,02,01,16,45,5.90
2020,02,01,16,46,5.90
2020,02,01,16,47,5.90
2020,02,01,16,48,5.90
2020,02,01,16,49,5.90
2020,02,01,16,50,5.90
2020,02,01,16,51,5.90
2020,02,01,16,52,5.80
2020,02,01,16,53,5.80
2020,02,01,16,54,5.80
2020,02,01,16,55,5.80
2020,02,01,16,56,5.80
2020,02,01,16,57,5.80
2020,02,01,16,58,5.80
2020,02,01,16,59,5.80
2020,02,01,17,00,5.70
2020,02,01,17,01,5.70
2020,02,01,17,02,5.70
2020,02,01,17,03,5.70
2020,02,01,17,04,5.70
2020,02,01,17,05,5.70
2020,02,01,17,06,5.60
2020,02,01,17,07,5.60
2020,02,01,17,08,5.60
2020,02,01,17,09,5.60
2020,02,01,17,10,5.50
2020,02,01,17,11,5.50
2020,02,01,17,12,5.50
2020,02,01,17,13,5.40
2020,02,01,17,14,5.40
2020,02,01,17,15,5.40
2020,02,01,17,16,5.40
2020,02,01,17,17,5.40
2020,02,01,17,18,5.40
2020,02,01,17,19,5.40
2020,02,01,17,20,5.30
2020,02,01,17,21,5.30
2020,02,01,17,22,5.30
2020,02,01,17,23,5.30
2020,02,01,17,24,5.30
2020,02,01,17,25,5.30
2020,02,01,17,26,5.30
2020,02,01,17,27,5.30
2020,02,01,17,28,5.30
2020,02,01,17,29,5.20
2020,02,01,17,30,5.20
2020,02,01,17,31,5.20
2020,02,01,17,32,5.20
2020,02,01,17,33,5.20
2020,02,01,17,34,5.10
2020,02,01,17,35,5.10
2020,02,01,17,36,5.10
2020,02,01,17,37,5.10
2020,02,01,17,38,5.00
2020,02,01,17,39,5.00
2020,02,01,17,40,5.00
2020,02,01,17,41,5.00
2020,02,01,17,42,5.00
2020,02,01,17,43,5.00
2020,02,01,17,44,5.00
2020,02,01,17,45,5.00
2020,02,01,17,46,5.00
2020,02,01,17,47,5.00
2020,02,01,17,48,5.00
2020,02,01,17,49,5.00
2020,02,01,17,50,5.00
2020,02,01,17,51,5.00
2020,02,01,17,52,5.00
2020,02,01,17,53,4.90
2020,02,01,17,54,4.90
2020,02,01,17,55,4.90
2020,02,01,17,56,4.90
2020,02,01,17,57,4.90
2020,02,01,17,58,4.90
2020,02,01,17,59,4.90
2020,02,01,18,00,4.90
2020,02,01,18,01,4.90
2020,02,01,18,02,4.80
2020,02,01,18,03,4.80
2020,02,01,18,04,4.80
2020,02,01,18,05,4.80
2020,02,01,18,06,4.80
2020,02,01,18,07,4.80
2020,02,01,18,08,4.80
2020,02,01,18,09,4.80
2020,02,01,18,10,4.80
2020,02,01,18,11,4.80
2020,02,01,18,12,4.80
2020,02,01,18,13,4.80
2020,02,01,18,14,4.80
2020,02,01,18,15,4.70
2020,02,01,18,16,4.70
2020,02,01,18,17,4.70
2020,02,01,18,18,4.70
2020,02,01,18,19,4.70
2020,02,01,18,20,4.70
2020,02,01,18,21,4.70
2020,02,01,18,22,4.70
2020,02,01,18,23,4.70
2020,02,01,18,24,4.70
2020,02,01,18,25,4.70
2020,02,01,18,26,4.70
2020,02,01,18,27,4.70
2020,02,01,18,28,4.70
2020,02,01,18,29,4.70
2020,02,01,18,30,4.70
2020,02,01,18,31,4.70
2020,02,01,18,32,4.70
2020,02,01,18,33,4.70
2020,02,01,18,34,4.60
2020,02,01,18,35,4.60
2020,02,01,18,36,4.60
2020,02,01,18,37,4.60
2020,02,01,18,38,4.60
2020,02,01,18,39,4.60
2020,02,01,18,40,4.60
2020,02,01,18,41,4.60
2020,02,01,18,42,4.60
2020,02,01,18,43,4.60
2020,02,01,18,44,4.60
2020,02,01,18,45,4.70
2020,02,01,18,46,4.70
2020,02,01,18,47,4.70
2020,02,01,18,48,4.70
2020,02,01,18,49,4.70
2020,02,01,18,50,4.70
2020,02,01,18,51,4.70
2020,02,01,18,52,4.70
2020,02,01,18,53,4.70
2020,02,01,18,54,4.70
2020,02,01,18,55,4.70
2020,02,01,18,56,4.70
2020,02,01,18,57,4.70
2020,02,01,18,58,4.70
2020,02,01,18,59,4.60
2020,02,01,19,00,4.60
2020,02,01,19,01,4.60
2020,02,01,19,02,4.60
2020,02,01,19,03,4.60
2020,02,01,19,04,4.50
2020,02,01,19,05,4.50
2020,02,01,19,06,4.50
2020,02,01,19,07,4.40
2020,02,01,19,08,4.40
2020,02,01,19,09,4.40
2020,02,01,19,10,4.40
2020,02,01,19,11,4.40
2020,02,01,19,12,4.30
2020,02,01,19,13,4.30
2020,02,01,19,14,4.30
2020,02,01,19,15,4.30
2020,02,01,19,16,4.30
2020,02,01,19,17,4.30
2020,02,01,19,18,4.30
2020,02,01,19,19,4.30
2020,02,01,19,20,4.20
2020,02,01,19,21,4.20
2020,02,01,19,22,4.20
2020,02,01,19,23,4.20
2020,02,01,19,24,4.20
2020,02,01,19,25,4.20
2020,02,01,19,26,4.10
2020,02,01,19,27,4.10
2020,02,01,19,28,4.10
2020,02,01,19,29,4.10
2020,02,01,19,30,4.00
2020,02,01,19,31,4.00
2020,02,01,19,32,4.00
2020,02,01,19,33,4.00
2020,02,01,19,34,4.00
2020,02,01,19,35,3.90
2020,02,01,19,36,3.90
2020,02,01,19,37,3.90
2020,02,01,19,38,3.90
2020,02,01,19,39,3.90
2020,02,01,19,40,3.90
2020,02,01,19,41,3.90
2020,02,01,19,42,3.90
2020,02,01,19,43,3.90
2020,02,01,19,44,3.90
2020,02,01,19,45,4.00
2020,02,01,19,46,4.00
2020,02,01,19,47,4.00
2020,02,01,19,48,4.00
2020,02,01,19,49,4.00
2020,02,01,19,50,4.00
2020,02,01,19,51,4.00
2020,02,01,19,52,4.00
2020,02,01,19,53,4.00
2020,02,01,19,54,4.00
2020,02,01,19,55,4.00
2020,02,01,19,56,4.00
2020,02,01,19,57,4.00
2020,02,01,19,58,4.00
2020,02,01,19,59,4.00
2020,02,01,20,00,4.00
2020,02,01,20,01,4.00
2020,02,01,20,02,4.00
2020,02,01,20,03,4.00
2020,02,01,20,04,4.00
2020,02,01,20,05,4.00
2020,02,01,20,06,4.00
2020,02,01,20,07,4.00
2020,02,01,20,08,4.00
2020,02,01,20,09,4.00
2020,02,01,20,10,4.00
2020,02,01,20,11,3.90
2020,02,01,20,12,3.90
2020,02,01,20,13,3.90
2020,02,01,20,14,3.90
2020,02,01,20,15,3.90
2020,02,01,20,16,3.90
2020,02,01,20,17,3.90
2020,02,01,20,18,3.90
2020,02,01,20,19,3.90
2020,02,01,20,20,3.90
2020,02,01,20,21,3.80
2020,02,01,20,22,3.80
2020,02,01,20,23,3.80
2020,02,01,20,24,3.80
2020,02,01,20,25,3.80
2020,02,01,20,26,3.80
2020,02,01,20,27,3.80
2020,02,01,20,28,3.80
2020,02,01,20,29,3.80
2020,02,01,20,30,3.80
2020,02,01,20,31,3.70
2020,02,01,20,32,3.70
2020,02,01,20,33,3.70
2020,02,01,20,34,3.70
2020,02,01,20,35,3.70
2020,02,01,20,36,3.70
2020,02,01,20,37,3.70
2020,02,01,20,38,3.70
2020,02,01,20,39,3.70
2020,02,01,20,40,3.80
2020,02,01,20,41,3.80
2020,02,01,20,42,3.80
2020,02,01,20,43,3.80
2020,02,01,20,44,3.70
2020,02,01,20,45,3.70
2020,02,01,20,46,3.70
2020,02,01,20,47,3.80
2020,02,01,20,48,3.70
2020,02,01,20,49,3.70
2020,02,01,20,50,3.70
2020,02,01,20,51,3.70
2020,02,01,20,52,3.70
2020,02,01,20,53,3.70
2020,02,01,20,54,3.70
2020,02,01,20,55,3.70
2020,02,01,20,56,3.70
2020,02,01,20,57,3.70
2020,02,01,20,58,3.70
2020,02,01,20,59,3.70
2020,02,01,21,00,3.70
2020,02,01,21,01,3.70
2020,02,01,21,02,3.70
2020,02,01,21,03,3.70
2020,02,01,21,04,3.70
2020,02,01,21,05,3.70
2020,02,01,21,06,3.70
2020,02,01,21,07,3.70
2020,02,01,21,08,3.70
2020,02,01,21,09,3.70
2020,02,01,21,10,3.70
2020,02,01,21,11,3.70
2020,02,01,21,12,3.70
2020,02,01,21,13,3.70
2020,02,01,21,14,3.70
2020,02,01,21,15,3.70
2020,02,01,21,16,3.70
2020,02,01,21,17,3.70
2020,02,01,21,18,3.70
2020,02,01,21,19,3.70
2020,02,01,21,20,3.70
2020,02,01,21,21,3.70
2020,02,01,21,22,3.70
2020,02,01,21,23,3.70
2020,02,01,21,24,3.70
2020,02,01,21,25,3.70
2020,02,01,21,26,3.70
2020,02,01,21,27,3.70
2020,02,01,21,28,3.70
2020,02,01,21,29,3.70
2020,02,01,21,30,3.70
2020,02,01,21,31,3.70
2020,02,01,21,32,3.70
2020,02,01,21,33,3.70
2020,02,01,21,34,3.70
2020,02,01,21,35,3.70
2020,02,01,21,36,3.70
2020,02,01,21,37,3.70
2020,02,01,21,38,3.70
2020,02,01,21,39,3.70
2020,02,01,21,40,3.70
2020,02,01,21,41,3.70
2020,02,01,21,42,3.70
2020,02,01,21,43,3.70
2020,02,01,21,44,3.70
2020,02,01,21,45,3.70
2020,02,01,21,46,3.70
2020,02,01,21,47,3.70
2020,02,01,21,48,3.70
2020,02,01,21,49,3.70
2020,02,01,21,50,3.70
2020,02,01,21,51,3.70
2020,02,01,21,52,3.70
2020,02,01,21,53,3.70
2020,02,01,21,54,3.70
2020,02,01,21,55,3.60
2020,02,01,21,56,3.60
2020,02,01,21,57,3.60
2020,02,01,21,58,3.60
2020,02,01,21,59,3.60
2020,02,01,22,00,3.60
2020,02,01,22,01,3.60
2020,02,01,22,02,3.60
2020,02,01,22,03,3.60
2020,02,01,22,04,3.50
2020,02,01,22,05,3.50
2020,02,01,22,06,3.50
2020,02,01,22,07,3.50
2020,02,01,22,08,3.50
2020,02,01,22,09,3.40
2020,02,01,22,10,3.40
2020,02,01,22,11,3.40
2020,02,01,22,12,3.40
2020,02,01,22,13,3.40
2020,02,01,22,14,3.40
2020,02,01,22,15,3.40
2020,02,01,22,16,3.40
2020,02,01,22,17,3.40
2020,02,01,22,18,3.40
2020,02,01,22,19,3.40
2020,02,01,22,20,3.40
2020,02,01,22,21,3.40
2020,02,01,22,22,3.30
2020,02,01,22,23,3.40
2020,02,01,22,24,3.30
2020,02,01,22,25,3.30
2020,02,01,22,26,3.30
2020,02,01,22,27,3.30
2020,02,01,22,28,3.30
2020,02,01,22,29,3.30
2020,02,01,22,30,3.30
2020,02,01,22,31,3.30
2020,02,01,22,32,3.30
2020,02,01,22,33,3.30
2020,02,01,22,34,3.30
2020,02,01,22,35,3.30
2020,02,01,22,36,3.30
2020,02,01,22,37,3.30
2020,02,01,22,38,3.40
2020,02,01,22,39,3.30
2020,02,01,22,40,3.30
2020,02,01,22,41,3.30
2020,02,01,22,42,3.30
2020,02,01,22,43,3.30
2020,02,01,22,44,3.30
2020,02,01,22,45,3.30
2020,02,01,22,46,3.30
2020,02,01,22,47,3.30
2020,02,01,22,48,3.30
2020,02,01,22,49,3.30
2020,02,01,22,50,3.30
2020,02,01,22,51,3.30
2020,02,01,22,52,3.30
2020,02,01,22,53,3.30
2020,02,01,22,54,3.20
2020,02,01,22,55,3.20
2020,02,01,22,56,3.20
2020,02,01,22,57,3.20
2020,02,01,22,58,3.20
2020,02,01,22,59,3.20
2020,02,01,23,00,3.20
2020,02,01,23,01,3.20
2020,02,01,23,02,3.20
2020,02,01,23,03,3.10
2020,02,01,23,04,3.10
2020,02,01,23,05,3.10
2020,02,01,23,06,3.10
2020,02,01,23,07,3.10
2020,02,01,23,08,3.10
2020,02,01,23,09,3.10
2020,02,01,23,10,3.10
2020,02,01,23,11,3.10
2020,02,01,23,12,3.10
2020,02,01,23,13,3.10
2020,02,01,23,14,3.10
2020,02,01,23,15,3.00
2020,02,01,23,16,3.00
2020,02,01,23,17,3.00
2020,02,01,23,18,3.00
2020,02,01,23,19,3.00
2020,02,01,23,20,3.00
2020,02,01,23,21,3.00
2020,02,01,23,22,3.00
2020,02,01,23,23,3.00
2020,02,01,23,24,3.00
2020,02,01,23,25,2.90
2020,02,01,23,26,2.90
2020,02,01,23,27,2.90
2020,02,01,23,28,2.90
2020,02,01,23,29,2.90
2020,02,01,23,30,2.90
2020,02,01,23,31,2.90
2020,02,01,23,32,2.90
2020,02,01,23,33,2.90
2020,02,01,23,34,2.90
2020,02,01,23,35,2.90
2020,02,01,23,36,2.90
2020,02,01,23,37,2.90
2020,02,01,23,38,2.90
2020,02,01,23,39,2.90
2020,02,01,23,40,2.90
2020,02,01,23,41,2.90
2020,02,01,23,42,2.80
2020,02,01,23,43,2.80
2020,02,01,23,44,2.90
2020,02,01,23,45,2.80
2020,02,01,23,46,2.80
2020,02,01,23,47,2.80
2020,02,01,23,48,2.80
2020,02,01,23,49,2.80
2020,02,01,23,50,2.80
2020,02,01,23,51,2.80
2020,02,01,23,52,2.80
2020,02,01,23,53,2.80
2020,02,01,23,54,2.80
2020,02,01,23,55,2.80
2020,02,01,23,56,2.80
2020,02,01,23,57,2.80
2020,02,01,23,58,2.80
2020,02,01,23,59,2.80
